Lebanon, NH

9:55 PM EDT on July 22, 2017 (GMT -0400)
Lebanon Municipal

Weather History for KLEB - February, 2014

Change the Weather History Date:

Sunday, February 2, 2014

  Actual Average Record
Temperature  
Mean Temperature 37 °F -  
Max Temperature 41 °F 31 °F 50 °F (1981)
Min Temperature 33 °F 7 °F -21 °F (1961)
Degree Days  
Heating Degree Days 28    
Moisture  
Dew Point 30 °F    
Average Humidity 77    
Maximum Humidity 89    
Minimum Humidity 64    
Precipitation  
Precipitation 0.00 in - - ()
Sea Level Pressure  
Sea Level Pressure 29.92 in    
Wind  
Wind Speed 4 mph (NNW)    
Max Wind Speed 12 mph    
Max Gust Speed -    
Visibility 9 miles    
Events      
Averages and records for this station are not official NWS values.
T = Trace of Precipitation, MM = Missing Value Source: NWS Daily Summary

Daily Weather History Graph

Daily Weather History Graph

Search for Another Location

Airport or City:

Trip Planner

Search our weather history database for the weather conditions in past years. The results will help you decide how hot, cold, wet, or windy it might be!

Date:

Astronomy

Feb. 02, 2014 Rise Set
Actual Time 7:04 AM EST 5:01 PM EST
Civil Twilight 6:34 AM EST 5:32 PM EST
Nautical Twilight 5:59 AM EST 6:06 PM EST
Astronomical Twilight 5:26 AM EST 6:40 PM EST
Moon 8:22 AM EST (2/2) 8:51 PM EST (2/2)
Length of Visible Light 10h 57m
Length of Day
9h 57m
Waxing Crescent, 11% of the Moon is Illuminated
Feb 2
Waxing Crescent
Feb 6
First Quarter
Feb 14
Full
Feb 22
Last Quarter
Mar 1
New

Hourly Weather History & Observations

Time (EST) Temp. Windchill Dew Point Humidity Pressure Visibility Wind Dir Wind Speed Gust Speed Precip Events Conditions
12:53 AM 36.0 °F 28.0 °F 28.0 °F 73% 29.94 in 10.0 mi SSW 11.5 mph - N/A   Overcast
1:53 AM 37.0 °F 30.4 °F 28.0 °F 70% 29.91 in 10.0 mi SSW 9.2 mph - N/A   Overcast
2:53 AM 35.1 °F - 30.0 °F 82% 29.89 in 10.0 mi Calm Calm - N/A   Overcast
3:53 AM 36.0 °F - 30.0 °F 79% 29.88 in 10.0 mi Calm Calm - N/A   Mostly Cloudy
4:53 AM 35.1 °F - 30.0 °F 82% 29.87 in 10.0 mi Calm Calm - N/A   Overcast
5:53 AM 34.0 °F - 30.0 °F 85% 29.84 in 10.0 mi Calm Calm - N/A   Scattered Clouds
6:53 AM 33.1 °F - 28.9 °F 85% 29.85 in 8.0 mi Calm Calm - N/A   Clear
7:53 AM 33.1 °F - 30.0 °F 89% 29.87 in 7.0 mi Calm Calm - N/A   Clear
8:53 AM 34.0 °F - 30.9 °F 89% 29.88 in 7.0 mi Calm Calm - N/A   Partly Cloudy
9:53 AM 36.0 °F 33.3 °F 30.9 °F 82% 29.89 in 7.0 mi NNW 3.5 mph - N/A   Scattered Clouds
10:53 AM 37.0 °F - 30.9 °F 79% 29.88 in 8.0 mi Calm Calm - N/A   Partly Cloudy
11:53 AM 37.9 °F - 30.9 °F 76% 29.88 in 9.0 mi Calm Calm - N/A   Scattered Clouds
12:53 PM 39.9 °F - 32.0 °F 73% 29.88 in 8.0 mi Calm Calm - N/A   Mostly Cloudy
1:53 PM 41.0 °F 39.0 °F 33.1 °F 73% 29.86 in 8.0 mi North 3.5 mph - N/A   Overcast
2:03 PM 41.0 °F 39.0 °F 32.0 °F 70% 29.87 in 8.0 mi NNW 3.5 mph - N/A   Overcast
2:45 PM 41.0 °F - 32.0 °F 70% 29.88 in 10.0 mi Calm Calm - N/A   Overcast
2:53 PM 41.0 °F 39.0 °F 32.0 °F 70% 29.90 in 9.0 mi WSW 3.5 mph - N/A   Overcast
3:53 PM 41.0 °F 38.0 °F 30.9 °F 67% 29.92 in 10.0 mi West 4.6 mph - N/A   Overcast
4:53 PM 37.9 °F 34.4 °F 30.9 °F 76% 29.94 in 10.0 mi South 4.6 mph - N/A   Overcast
5:53 PM 36.0 °F - 30.9 °F 82% 29.96 in 10.0 mi Calm Calm - N/A   Overcast
6:53 PM 37.0 °F 34.5 °F 30.0 °F 76% 30.00 in 10.0 mi NNE 3.5 mph - N/A   Overcast
7:53 PM 35.1 °F - 30.0 °F 82% 30.01 in 10.0 mi Calm Calm - N/A   Overcast
8:53 PM 36.0 °F 33.3 °F 30.9 °F 82% 30.03 in 9.0 mi NE 3.5 mph - N/A   Overcast
9:53 PM 36.0 °F 32.1 °F 30.0 °F 79% 30.05 in 10.0 mi NNE 4.6 mph - N/A   Overcast
10:53 PM 35.1 °F 28.6 °F 28.0 °F 76% 30.07 in 10.0 mi North 8.1 mph - N/A   Overcast
11:53 PM 33.1 °F 24.4 °F 21.9 °F 64% 30.10 in 10.0 mi North 11.5 mph - N/A   Overcast